TimeAST,TemperatureF,Dew PointF,Humidity,Sea Level PressureIn,VisibilityMPH,Wind Direction,Wind SpeedMPH,Gust SpeedMPH,PrecipitationIn,Events,Conditions,WindDirDegrees,DateUTC
12:00 AM,82.4,73.4,74,29.95,6.2,ENE,6.9,-,N/A,,Partly Cloudy,70,2012-11-01 04:00:00
1:00 AM,82.4,75.2,79,29.92,6.2,ENE,8.1,-,N/A,,Scattered Clouds,60,2012-11-01 05:00:00
2:00 AM,81,74,73,29.93,28,East,5.8,,,,Scattered Clouds,90,2012-11-01 06:00:00
2:00 AM,80.6,73.4,79,29.92,6.2,East,5.8,-,N/A,,Partly Cloudy,90,2012-11-01 06:00:00
3:00 AM,80.6,73.4,79,29.92,6.2,ENE,6.9,-,N/A,,Partly Cloudy,70,2012-11-01 07:00:00
4:00 AM,80.6,73.4,79,29.92,6.2,East,6.9,-,N/A,,Partly Cloudy,80,2012-11-01 08:00:00
5:00 AM,81,73,71,29.92,28,East,5.8,,,,Scattered Clouds,80,2012-11-01 09:00:00
5:00 AM,80.6,73.4,79,29.92,6.2,ENE,5.8,-,N/A,,Partly Cloudy,70,2012-11-01 09:00:00
6:00 AM,80.6,73.4,79,29.92,6.2,Variable,3.5,-,N/A,,Partly Cloudy,0,2012-11-01 10:00:00
7:00 AM,82.4,73.4,74,29.95,6.2,ENE,4.6,-,N/A,,Partly Cloudy,70,2012-11-01 11:00:00
8:00 AM,84,74,66,29.96,31,ENE,6.9,,,,Partly Cloudy,70,2012-11-01 12:00:00
8:00 AM,84.2,75.2,74,29.95,6.2,ENE,6.9,-,N/A,,Scattered Clouds,60,2012-11-01 12:00:00
9:00 AM,84.2,73.4,70,29.98,6.2,East,9.2,-,N/A,,Scattered Clouds,80,2012-11-01 13:00:00
10:00 AM,86.0,71.6,62,29.98,6.2,East,11.5,-,N/A,,Partly Cloudy,80,2012-11-01 14:00:00
11:00 AM,87,73,54,29.98,37,SE,8.1,,,,Partly Cloudy,130,2012-11-01 15:00:00
11:00 AM,86.0,71.6,62,29.98,6.2,ESE,8.1,-,N/A,,Scattered Clouds,110,2012-11-01 15:00:00
12:00 PM,86.0,71.6,62,29.95,6.2,East,9.2,-,N/A,,Scattered Clouds,80,2012-11-01 16:00:00
1:00 PM,87.8,71.6,58,29.92,6.2,East,9.2,-,N/A,,Partly Cloudy,90,2012-11-01 17:00:00
2:00 PM,87,72,53,29.91,37,East,9.2,,,,Scattered Clouds,90,2012-11-01 18:00:00
2:00 PM,86.0,71.6,62,29.89,6.2,East,9.2,-,N/A,,Partly Cloudy,90,2012-11-01 18:00:00
3:00 PM,86.0,71.6,62,29.89,6.2,ENE,9.2,-,N/A,,Partly Cloudy,70,2012-11-01 19:00:00
4:00 PM,84.2,69.8,62,29.89,6.2,East,10.4,-,N/A,,Partly Cloudy,80,2012-11-01 20:00:00
5:00 PM,84,70,55,29.91,37,ENE,12.7,,,,Scattered Clouds,70,2012-11-01 21:00:00
5:00 PM,84.2,69.8,62,29.89,6.2,ENE,12.7,-,N/A,,Partly Cloudy,70,2012-11-01 21:00:00
6:00 PM,82.4,69.8,66,29.89,6.2,ENE,10.4,-,N/A,,Partly Cloudy,70,2012-11-01 22:00:00
7:00 PM,80.6,69.8,70,29.92,6.2,ENE,8.1,-,N/A,,Partly Cloudy,70,2012-11-01 23:00:00
8:00 PM,82,71,61,29.94,37,ENE,10.4,,,,Scattered Clouds,70,2012-11-02 00:00:00
8:00 PM,82.4,71.6,70,29.92,6.2,ENE,10.4,-,N/A,,Partly Cloudy,70,2012-11-02 00:00:00
9:00 PM,80.6,71.6,74,29.95,6.2,East,8.1,-,N/A,,Partly Cloudy,80,2012-11-02 01:00:00
10:00 PM,80.6,71.6,74,29.95,6.2,East,9.2,-,N/A,,Partly Cloudy,80,2012-11-02 02:00:00
11:00 PM,81,72,67,29.96,37,ENE,6.9,,,,Scattered Clouds,70,2012-11-02 03:00:00
11:00 PM,80.6,71.6,74,29.95,6.2,ENE,6.9,-,N/A,,Partly Cloudy,70,2012-11-02 03:00:00